Weather in Travkovo

Russia / Novgorod Oblast     58°18′37″N   33°41′56″E
В апреле 2022 года жителям России запретили посещать сайт meteo.paraplan.net по решению Генеральной прокуратуры. Аудитория сайта уменьшилась в 10 раз. Владельцы сайта не видят смысла в поддержке погодного сервера в таких условиях. Сайт будет закрыт в октябре.
temp.,
°C
wind,
m/s
gust,
m/s
humid.,
%
clouds,
%
prec.,
mm/h
press.,
hPa
HPBL,
m
30 september, fri
fri3000:00+8sse3998100 4.6 1008425
03:00+9s3996100 4.8 1008581
06:00+9ssw3796100 0.3 1009337
09:00+10ssw269053 0.3 1010350
12:00+12sw457591 0.0 1011933
15:00+11sw4674100 0.1 10121005
18:00+10ssw267754 0.0 1013211
21:00+7sw379179 0.0 1015127
1 october, sat
sat100:00+6wsw23954 0.1 101657
03:00+5sw229343 0.1 101738
06:00+5sw2292100 0.0 101726
09:00+7ssw128388 0.0 1016143
12:00+10se116999 0.0 1015538
15:00+11e2269100 0.0 1013606
18:00+8ene2691100 1.6 1011287
21:00+7nne4995100 6.9 1009564
2 october, sun
sun200:00+7nne51196100 10.3 1007674
03:00+7n41095100 13.1 1006619
06:00+7nnw4994100 0.7 1006686
09:00+6nw4894100 0.8 1007500
12:00+7nnw3788100 0.0 1008583
15:00+8nne2585100 0.0 1008348
18:00+7ene1287100 0.0 100965
21:00+7nne1288100 0.0 100943
3 october, mon
mon300:00+7nne2789100 0.0 1009309
03:00+6nne3889100 0.0 1008377
06:00+5nne41191100 0.5 1006549
09:00+5nne51196100 4.8 1004617
12:00+5n51196100 4.1 1002604
15:00+5n51296100 7.8 999694
18:00+5nnw61297100 7.2 995624
21:00+5wnw51097100 14.1 993541
4 october, tue
tue400:00+4wsw5896100 1.2 993576
03:00+3ssw51097100 1.6 995522
06:00+3ssw51197100 0.8 996739
09:00+4ssw61195100 1.3 9981048
12:00+5s71496100 1.5 10001260
15:00+6ssw71295100 2.4 10031121
18:00+6ssw61295100 1.1 10061098
21:00+7ssw61193100 1.5 10071135